This is the latest recevied weather packets stored in our database for station/object K8RLH. If no packets are shown the sender has not sent any weather packets the latest 10 day(s).
| Time | Temp. | Humidity | Pressure | Rain* | Wind** | Luminosity | Snow |
|---|---|---|---|---|---|---|---|
| 1777904624 | 17.78° C | 49% | 1019.9 hPa | 0 mm | - | 500 W/m² | - |
| 1777904321 | 17.78° C | 49% | 1020.1 hPa | 0 mm | - | 486 W/m² | - |
| 1777904018 | 17.78° C | 52% | 1019.9 hPa | 0 mm | - | 491 W/m² | - |
| 1777903715 | 17.22° C | 52% | 1019.9 hPa | 0 mm | - | 468 W/m² | - |
| 1777903411 | 16.67° C | 52% | 1019.8 hPa | 0 mm | - | 460 W/m² | - |
| 1777903108 | 16.11° C | 56% | 1019.8 hPa | 0 mm | - | 447 W/m² | - |
| 1777902804 | 15.56° C | 56% | 1019.8 hPa | 0 mm | - | 327 W/m² | - |
| 1777902502 | 15.56° C | 57% | 1019.9 hPa | 0 mm | - | 65 W/m² | - |
| 1777902198 | 15.56° C | 58% | 1020 hPa | 0 mm | - | 47 W/m² | - |
| 1777901896 | 15° C | 57% | 1020.1 hPa | 0 mm | - | 80 W/m² | - |
| 1777901594 | 15° C | 58% | 1020 hPa | 0 mm | - | 43 W/m² | - |
| 1777901291 | 15° C | 59% | 1019.7 hPa | 0 mm | - | 45 W/m² | - |
| 1777900988 | 15° C | 60% | 1019.8 hPa | 0 mm | - | 56 W/m² | - |
| 1777900686 | 15° C | 60% | 1019.8 hPa | 0 mm | - | 98 W/m² | - |
| 1777900382 | 14.44° C | 61% | 1019.8 hPa | 0 mm | - | 37 W/m² | - |
| 1777900080 | 14.44° C | 62% | 1019.9 hPa | 0 mm | - | 40 W/m² | - |
| 1777899776 | 13.89° C | 62% | 1019.7 hPa | 0 mm | - | 36 W/m² | - |
| 1777899472 | 13.89° C | 65% | 1019.7 hPa | 0 mm | - | 91 W/m² | - |
| 1777899170 | 13.89° C | 64% | 1019.6 hPa | 0 mm | - | 34 W/m² | - |
| 1777898868 | 13.89° C | 65% | 1019.7 hPa | 0 mm | - | 33 W/m² | - |
| 1777898565 | 13.89° C | 65% | 1019.8 hPa | 0 mm | - | 41 W/m² | - |
| 1777898263 | 13.33° C | 66% | 1019.7 hPa | 0 mm | - | 47 W/m² | - |
| 1777897959 | 13.33° C | 66% | 1019.6 hPa | 0 mm | - | 42 W/m² | - |
| 1777897655 | 13.33° C | 67% | 1019.6 hPa | 0 mm | - | 91 W/m² | - |
| 1777897352 | 12.78° C | 68% | 1019.6 hPa | 0 mm | - | 102 W/m² | - |
* Rain latest hour (hover to see other rain measurements)
** Current wind speed in m/s (hover to see current wind gust speed)